Location: Godzisko
(49.9648°N, 19.4576°E)
Time: 07:44:23
(UTC+00:00)

CZ-4 R/B - Pass Details

Date: 20 April 2021
Orbit: 682 x 752 km, 98.5° (Epoch: 06 May)

Event Time Altitude Azimuth Distance (km) Brightness Sun altitude
Rises 00:03:30 0° 12° (NNE) 3,216 8.5 -25.9°
Reaches altitude 10° 00:05:49 10° 10° (N) 2,286 7.4 -25.8°
Maximum altitude 00:10:49 66° 289° (WNW) 817 4.0 -25.4°
Enters shadow 00:10:58 66° 276° (W) 820 4.0 -25.4°
